Location: Ferintosh
(52.7647°N, 112.9692°W)
Time: 17:28:45
(UTC+00:00)

S-56A Canister/Altair - Pass Details

Date: 25 May 2024
Orbit: 637 x 2489 km, 38.9° (Epoch: 22 June)

Event Time Altitude Azimuth Distance (km) Brightness Sun altitude
Rises 13:17:58 0° 229° (SW) 6,005 11.5 15.1°
Reaches altitude 10° 13:22:41 10° 222° (SW) 4,824 11.2 15.7°
Maximum altitude 13:33:31 32° 166° (SSE) 2,804 10.6 17.3°
Drops below altitude 10° 13:41:37 10° 108° (ESE) 3,579 12.2 18.5°
Sets 13:44:33 0° 98° (E) 4,304 12.7 19.0°
